Flag for Iran Weather past 2 weeks in Rafsanjan, Iran

Now
82 °F

Clear.


Feels Like: 80 °F
Forecast: 65 / 101 °F
Wind: 9 mph from North

Location: Kerman Airport

Current Time: Jul 25, 2014 at 1:15:47 AM

Latest Report: Jul 25, 2014 at 12:30 AM


Visibility: 10 mi

Pressure: 29.95 "Hg

Humidity: 11%

Dew point: 23 °F

Location of RafsanjanLocation

Historic Weather in Rafsanjan — Graph

°F

Rafsanjan temperature yesterday

Maximum temperature yesterday: 99 °F (at 2:30 PM)
Minimum temperature yesterday: 70 °F (at 3:30 AM)
Average temperature yesterday: 84 °F

Past Weeks' High & Low Weather Summary

 TemperatureHumidityPressure
High104 °F (Jul 23, 4:30 PM)32% (Jul 10, 6:20 AM)30.04 "Hg (Jul 10, 6:20 AM)
Low54 °F (Jul 19, 5:30 AM)1% (Jul 19, 3:00 PM)29.77 "Hg (Jul 20, 5:30 AM)
Average84 °F11%29.94 "Hg
* Reported Jul 9 11:30 PM — Jul 24 11:30 PM, Rafsanjan, Weather by CustomWeather, © 2014

Note: Actual official high and low records may vary slightly from our data, if they occured in-between our weather recording intervals... More about our weather records

Advertising

Rafsanjan weather history for previous 24 hours

 ConditionsComfort  
Time TempWeatherWind HumidityBarometerVisibility
11:30 PM
Jul 24
82 °FClear.7 mph11%29.95 "Hg10 mi
10:30 PM82 °FClear.9 mph12%29.95 "Hg10 mi
9:30 PM84 °FClear.12 mph10%29.95 "Hg10 mi
8:30 PM88 °FSunny.12 mph10%29.89 "Hg10 mi
6:30 PM95 °FSunny.12 mph7%29.86 "Hg10 mi
5:30 PM97 °FSunny.14 mph7%29.83 "Hg10 mi
3:30 PM99 °FSunny.14 mph6%29.86 "Hg10 mi
2:30 PM99 °FSunny.12 mph6%29.86 "Hg10 mi
1:30 PM97 °FSunny.9 mph6%29.89 "Hg10 mi
12:30 PM95 °FSunny.14 mph7%29.92 "Hg10 mi
11:30 AM95 °FSunny.9 mph7%29.92 "Hg10 mi
10:30 AM91 °FSunny.9 mph11%29.92 "Hg3 mi
9:30 AM90 °FSunny.9 mph12%29.95 "Hg3 mi
8:30 AM86 °FSunny.5 mph13%29.92 "Hg5 mi
7:20 AM72 °FClear.7 mph19%29.92 "Hg4 mi
6:30 AM70 °FClear.5 mph20%29.92 "Hg4 mi
5:30 AM72 °FClear.7 mph16%29.89 "Hg10 mi
4:30 AM70 °FClear.No wind17%29.89 "Hg10 mi
3:30 AM70 °FClear.7 mph17%29.89 "Hg10 mi
2:30 AM73 °FClear.5 mph14%29.89 "Hg10 mi
1:30 AM73 °FClear.5 mph14%29.89 "Hg10 mi
Weather by CustomWeather, © 2014

See weather overviewHow to use our weather pages